TimeEST,TemperatureF,Dew PointF,Humidity,Sea Level PressureIn,VisibilityMPH,Wind Direction,Wind SpeedMPH,Gust SpeedMPH,PrecipitationIn,Events,Conditions,WindDirDegrees,DateUTC
12:55 AM,25.9,3.6,38,30.42,10.0,Variable,5.8,-,N/A,,Overcast,0,2013-02-08 05:55:00
1:55 AM,25.9,5.4,42,30.40,10.0,Variable,3.5,-,N/A,,Overcast,0,2013-02-08 06:55:00
2:55 AM,25.7,11.3,55,30.36,10.0,ENE,4.6,-,N/A,,Overcast,70,2013-02-08 07:55:00
3:34 AM,26.6,14.0,59,30.35,10.0,Variable,3.5,-,N/A,,Overcast,0,2013-02-08 08:34:00
3:55 AM,25.9,15.1,64,30.35,10.0,Calm,Calm,-,N/A,,Overcast,0,2013-02-08 08:55:00
4:55 AM,26.2,17.4,69,30.32,10.0,NE,4.6,-,N/A,,Overcast,40,2013-02-08 09:55:00
5:55 AM,27.1,19.9,74,30.31,10.0,NE,4.6,-,N/A,,Overcast,50,2013-02-08 10:55:00
6:55 AM,27.9,21.4,77,30.29,10.0,NE,6.9,-,N/A,,Overcast,50,2013-02-08 11:55:00
7:33 AM,28.4,21.2,74,30.28,10.0,ENE,6.9,-,N/A,Snow,Light Snow,70,2013-02-08 12:33:00
7:55 AM,28.4,22.3,78,30.26,10.0,ENE,8.1,-,0.00,Snow,Light Snow,60,2013-02-08 12:55:00
8:14 AM,28.4,23.0,80,30.25,7.0,NE,5.8,-,N/A,Snow,Light Snow,50,2013-02-08 13:14:00
8:55 AM,29.5,23.0,77,30.24,10.0,ENE,5.8,-,0.00,,Overcast,70,2013-02-08 13:55:00
9:32 AM,30.2,23.0,75,30.22,10.0,ENE,9.2,-,N/A,,Overcast,70,2013-02-08 14:32:00
9:40 AM,32.0,23.0,69,30.22,10.0,Variable,5.8,-,N/A,Snow,Light Snow,0,2013-02-08 14:40:00
9:41 AM,32.0,23.0,69,30.20,10.0,East,4.6,-,N/A,,Overcast,80,2013-02-08 14:41:00
9:51 AM,30.2,24.8,80,30.22,1.5,NE,5.8,-,N/A,Snow,Light Snow,50,2013-02-08 14:51:00
9:58 AM,30.2,26.6,86,30.22,1.5,NE,8.1,-,N/A,Snow,Light Snow,50,2013-02-08 14:58:00
10:01 AM,30.2,26.6,86,30.22,1.2,NE,6.9,-,N/A,Snow,Light Snow,40,2013-02-08 15:01:00
10:55 AM,30.2,27.1,88,30.18,1.2,NE,11.5,-,0.00,Snow,Light Snow,50,2013-02-08 15:55:00
11:55 AM,29.8,27.5,91,30.12,1.2,North,10.4,-,0.01,Snow,Light Snow,10,2013-02-08 16:55:00
12:32 PM,30.2,28.4,93,30.09,0.5,NNE,11.5,-,N/A,Fog-Snow,Light Snow,20,2013-02-08 17:32:00
12:49 PM,30.2,28.4,93,30.07,0.5,NNE,10.4,-,N/A,Snow,Light Snow,30,2013-02-08 17:49:00
12:55 PM,29.8,27.9,92,30.07,0.8,NNE,11.5,-,0.02,Snow,Light Snow,20,2013-02-08 17:55:00
1:55 PM,29.7,27.5,92,30.01,0.8,NNE,11.5,-,0.01,Snow,Light Snow,30,2013-02-08 18:55:00
1:57 PM,30.2,26.6,86,30.01,1.5,NNE,12.7,-,N/A,,Overcast,30,2013-02-08 18:57:00
2:55 PM,28.4,24.8,86,29.98,0.8,NE,19.6,25.3,0.00,Snow,Light Snow,50,2013-02-08 19:55:00
3:08 PM,28.4,24.8,86,29.97,1.2,NE,13.8,24.2,N/A,Snow,Light Snow,40,2013-02-08 20:08:00
3:19 PM,26.6,24.8,93,29.96,0.8,NNE,15.0,-,N/A,Snow,Light Snow,20,2013-02-08 20:19:00
4:55 PM,26.6,23.5,88,29.88,1.0,NNE,16.1,24.2,0.00,Snow,Light Snow,30,2013-02-08 21:55:00
5:16 PM,26.6,23.0,86,29.88,1.8,NNE,17.3,27.6,N/A,Snow,Light Snow,30,2013-02-08 22:16:00
5:31 PM,26.6,23.0,86,29.88,1.8,NNE,17.3,28.8,N/A,Snow,Light Snow,20,2013-02-08 22:31:00
5:55 PM,26.1,23.5,90,29.86,0.8,NNE,17.3,-,0.00,Snow,Light Snow,30,2013-02-08 22:55:00
6:02 PM,26.6,23.0,86,29.86,0.8,NNE,15.0,-,N/A,Snow,Light Snow,20,2013-02-08 23:02:00
6:09 PM,26.6,23.0,86,29.85,0.8,NNE,20.7,-,N/A,Snow,Light Snow,20,2013-02-08 23:09:00
6:15 PM,26.6,23.0,86,29.86,0.8,NNE,16.1,25.3,N/A,Snow,Light Snow,20,2013-02-08 23:15:00
6:20 PM,26.6,24.8,93,29.86,0.8,NNE,18.4,25.3,N/A,Snow,Light Snow,20,2013-02-08 23:20:00
6:34 PM,26.6,23.0,86,29.85,0.8,NNE,20.7,29.9,N/A,Snow,Light Snow,30,2013-02-08 23:34:00
6:55 PM,25.9,23.9,92,29.83,0.8,NNE,25.3,-,0.06,Snow,Light Snow,20,2013-02-08 23:55:00
7:23 PM,26.6,23.0,86,29.80,0.8,NNE,24.2,34.5,N/A,Snow,Light Snow,20,2013-02-09 00:23:00
7:26 PM,26.6,23.0,86,29.80,0.8,North,21.9,34.5,N/A,Snow,Light Snow,10,2013-02-09 00:26:00
7:45 PM,24.8,23.0,93,29.78,0.8,North,25.3,28.8,N/A,Snow,Light Snow,10,2013-02-09 00:45:00
7:55 PM,24.6,22.5,91,29.77,0.8,North,23.0,31.1,0.00,Snow,Light Snow,10,2013-02-09 00:55:00
8:13 PM,23.0,21.2,93,29.77,0.5,North,23.0,33.4,N/A,Snow,Snow,10,2013-02-09 01:13:00
8:55 PM,22.8,20.5,91,29.74,0.5,North,23.0,34.5,0.01,Snow,Snow,10,2013-02-09 01:55:00
9:39 PM,21.2,19.4,93,29.71,0.2,NNE,25.3,36.8,N/A,Snow,Heavy Snow,30,2013-02-09 02:39:00
9:55 PM,21.0,18.7,91,29.71,0.2,NNE,24.2,34.5,0.00,Snow,Heavy Snow,30,2013-02-09 02:55:00
10:05 PM,21.2,19.4,93,29.70,0.2,NNE,29.9,40.3,N/A,Snow,Heavy Snow,30,2013-02-09 03:05:00
10:17 PM,21.2,19.4,93,29.69,0.2,NNE,25.3,39.1,N/A,Snow,Heavy Snow,30,2013-02-09 03:17:00
10:23 PM,21.2,19.4,93,29.69,0.2,NNE,27.6,33.4,N/A,Snow,Heavy Snow,30,2013-02-09 03:23:00
10:35 PM,21.2,17.6,86,29.71,0.2,NE,24.2,33.4,N/A,Fog-Snow,Heavy Freezing Fog,40,2013-02-09 03:35:00
10:55 PM,19.9,18.0,92,29.70,0.2,NNE,25.3,31.1,0.01,Fog-Snow,Heavy Freezing Fog,30,2013-02-09 03:55:00
11:09 PM,19.4,17.6,93,29.70,0.2,NNE,25.3,34.5,N/A,Fog-Snow,Heavy Freezing Fog,30,2013-02-09 04:09:00
11:26 PM,19.4,17.6,93,29.72,0.2,NNE,19.6,35.7,N/A,Fog-Snow,Heavy Freezing Fog,30,2013-02-09 04:26:00
11:36 PM,19.4,17.6,93,29.71,0.2,NNE,26.5,33.4,N/A,Fog-Snow,Heavy Freezing Fog,30,2013-02-09 04:36:00
11:46 PM,19.4,17.6,93,29.72,0.2,NNE,21.9,33.4,N/A,Fog-Snow,Light Freezing Fog,30,2013-02-09 04:46:00
11:47 PM,19.4,17.6,93,29.72,0.2,NNE,20.7,33.4,N/A,Fog-Snow,Light Freezing Fog,20,2013-02-09 04:47:00
11:52 PM,19.4,17.6,93,29.72,0.2,NNE,21.9,32.2,N/A,Fog-Snow,Light Freezing Fog,20,2013-02-09 04:52:00
11:54 PM,19.4,17.6,93,29.72,0.5,North,20.7,32.2,N/A,Fog-Snow,Light Freezing Fog,10,2013-02-09 04:54:00
11:55 PM,19.8,17.8,92,29.72,0.5,NNE,19.6,32.2,0.00,Fog-Snow,Light Freezing Fog,20,2013-02-09 04:55:00
11:57 PM,19.4,17.6,93,29.72,0.5,North,18.4,32.2,N/A,Fog-Snow,Light Freezing Fog,10,2013-02-09 04:57:00